SCP
-0 -0 -0 -0 -0 -0 -0 -0 -0 -0 -0 -0 -0 -0 0 0 0 0 0 0 0 0 0 -0 -0 -0 0 0 0 0 0 0 0 0 0 0 0 0 0 0 0 0 0 0 0 0 0
-0 -0 -0 -0 -0 -0 -0 -0 -0 -0 -0 -0 -0 -0 0 0 0 0 0 0 0 0 0 0 -0 -0 0 0 0 0 0 0 0 0 0 0 0 0 0 0 0 0 0 0 0 0 0
-0 -0 -0 -0 -0 -0 -0 -0 -0 -0 -0 -0 -0 -0 0 0 0 0 0 0 0 0 0 0 0 0 0 0 0 0 0 0 0 0 0 0 0 0 0 0 0 0 0 0 0 0 0
-0 -0 -0 -0 -0 -0 -0 -0 -0 -0 -0 -0 -0 -0 -0 -0 0 0 0 -0 -0 -0 0 0 0 0 0 0 0 0 0 0 0 0 0 0 0 0 0 0 0 0 0 0 0 0 0
-0 -0 -0 -0 -0 -0 -0 -0 -0 -0 -0 -0 -0 -0 -0 -0 0 0 0 -0 -0 0 0 0 0 0 0 0 0 0 0 0 0 0 0 0 0 0 0 0 0 0 0 0 0 0 0
-0 -0 -0 -0 -0 -0 -0 -0 -0 -0 -0 -0 -0 -0 -0 -0 0 0 0 -0 0 0 0 0 0 0 0 0 0 0 0 0 0 0 0 0 0 0 0 0 0 0 0 0 0 0 0
-0 -0 -0 -0 -0 -0 -0 -0 -0 -0 -0 -0 -0 -0 -0 -0 0 0 0 0 0 0 0 0 0 0 0 0 0 0 0 0 0 0 0 0 0 0 0 0 0 0 0 0 0 0 0
-0 -0 -0 -0 -0 -0 -0 -0 -0 -0 -0 -0 -0 -0 -0 -0 0 0 0 0 0 0 0 0 0 0 0 0 0 0 0 0 0 0 0 0 0 0 0 0 0 0 0 0 0 0 0
-0 -0 -0 -0 -0 -0 -0 -0 -0 -0 -0 -0 -0 -0 -0 0 0 0 0 0 0 0 0 0 0 0 0 0 0 0 0 0 0 0 0 0 0 0 0 0 0 0 0 0 0 0 0
0 -0 -0 -0 -0 -0 -0 -0 -0 -0 -0 -0 -0 -0 0 0 0 0 0 0 0 0 0 0 0 0 0 0 0 0 0 0 0 0 0 0 0 0 0 0 0 0 0 0 0 0 0
0 0 0 0 -0 -0 -0 -0 -0 -0 -0 -0 -0 0 0 0 0 0 0 0 0 0 0 0 0 0 0 0 0 0 0 0 0 0 0 0 0 0 0 0 0 0 0 0 0 0 0
0 0 0 0 0 0 0 0 -0 -0 -0 -0 0 0 0 0 0 0 0 0 0 0 0 0 0 0 0 0 0 0 0 0 0 0 0 0 0 0 0 0 0 0 0 0 0 0 0
0 0 0 0 0 0 0 0 0 0 0 0 0 0 0 0 0 0 0 0 0 0 0 0 0 0 0 0 0 0 0 0 0 0 0 0 0 0 0 0 0 0 0 0 0 0 0
0 0 0 0 0 0 0 0 0 0 0 0 0 0 0 0 0 0 0 0 0 0 0 0 0 0 0 0 0 0 0 0 0 0 0 0 0 0 0 0 0 0 0 0 0 0 0
0 0 0 0 0 0 0 0 0 0 0 0 0 0 0 0 0 0 0 0 0 0 0 0 0 0 0 0 0 0 0 0 0 0 0 0 0 0 0 0 0 0 0 0 0 0 0
0 0 0 0 0 0 0 0 0 0 0 0 0 0 0 0 0 0 0 0 0 0 0 0 0 0 0 0 0 0 0 0 0 0 0 0 0 0 0 0 0 0 0 0 0 0 0
0 0 0 0 0 0 0 0 0 0 0 0 -0 0 0 0 0 0 0 0 0 0 0 0 0 0 0 0 0 0 0 0 0 0 0 0 0 0 0 0 0 0 0 0 0 0 0
0 0 0 0 0 0 0 0 0 0 0 0 -0 0 0 0 0 0 0 0 0 0 0 0 0 0 0 0 0 0 0 0 0 0 0 0 0 0 0 0 0 0 0 0 0 0 0
0 0 0 0 0 0 0 0 0 0 0 -0 0 0 0 0 0 0 0 0 0 0 0 0 0 0 0 0 0 0 0 0 0 0 0 0 0 0 0 0 0 0 0 0 0 0 0
0 0 0 0 0 0 0 0 0 0 0 0 0 0 0 0 0 0 0 0 0 0 0 0 0 0 0 0 0 0 0 0 0 0 0 0 0 0 0 0 0 0 0 0 0 0 0
0 0 0 0 0 0 0 0 0 0 0 0 0 0 0 0 0 0 0 0 0 0 0 0 0 0 0 0 0 0 0 0 0 0 0 0 0 0 0 0 0 0 0 0 0 0 0
0 0 0 0 0 0 0 0 0 0 0 0 0 0 0 0 0 0 0 0 0 0 0 0 0 0 0 0 0 0 0 0 0 0 0 0 0 0 0 0 0 0 0 0 0 0 0
0 0 0 0 0 0 0 0 0 0 0 0 0 0 0 0 0 0 0 0 0 0 0 0 0 0 0 0 0 0 0 0 0 0 0 0 0 0 0 0 0 0 0 0 0 0 0
0 0 0 0 0 0 0 0 0 0 0 -0 -0 0 0 0 0 0 0 0 0 0 0 -0 -0 -0 0 -0 -0 0 0 0 0 0 0 0 0 0 0 0 0 0 0 0 0 0 0
0 0 0 0 0 0 0 0 0 0 0 0 0 0 0 0 0 0 0 0 0 0 0 0 -0 0 0 -0 -0 -0 0 0 0 0 0 0 0 0 0 0 0 0 0 0 0 0 0
0 0 0 0 0 0 0 0 0 0 0 0 0 0 0 0 0 0 0 0 0 0 0 0 0 0 0 0 -0 0 0 0 0 0 0 0 0 0 0 0 0 0 0 0 0 0 0
0 0 0 0 0 0 0 0 0 0 0 0 0 0 0 0 0 0 0 0 0 0 0 0 0 0 -0 0 0 0 0 0 0 0 0 0 0 0 0 0 0 0 0 0 0 0 0
0 0 0 0 0 0 0 0 0 0 0 0 0 0 0 0 0 0 -0 0 0 0 0 0 0 -0 -0 0 0 0 0 0 0 0 0 0 0 0 0 0 0 0 0 0 0 0 0
0 0 0 0 0 0 0 0 0 -0 0 0 0 0 0 0 0 0 0 0 0 0 0 0 0 0 0 0 0 0 0 -0 -0 0 -0 0 -0 0 0 -0 0 -0 -0 0 0 0 0
Wind_Speed_500mb
33 36 38 39 42 46 48 48 40 30 23 19 13 8 4 3 4 5 7 7 7 9 11 6 11 11 7 9 10 8 5 4 4 3 7 11 10 7 4 4 2 4 3 8 9 11 12
28 32 36 37 39 42 44 48 47 39 29 24 19 13 9 7 6 8 8 10 11 12 16 18 17 14 10 7 5 5 5 4 3 3 6 10 7 5 4 4 5 3 7 12 10 11 12
25 29 32 35 37 38 40 42 44 44 39 31 25 19 13 11 10 12 11 14 13 13 15 16 14 12 15 16 8 5 5 6 4 4 4 6 6 7 6 2 2 3 8 9 10 7 7
23 26 29 32 34 35 36 38 39 40 42 40 32 24 22 15 13 13 16 17 18 17 12 9 12 13 11 13 12 9 7 7 7 6 3 4 3 6 3 4 7 5 7 7 3 8 2
20 25 28 31 34 35 35 35 36 37 38 39 39 32 27 15 8 10 15 18 20 23 22 23 19 12 11 10 12 10 8 7 8 7 6 5 5 4 4 7 7 10 4 5 15 13 3
21 24 28 31 34 35 35 36 36 36 36 37 37 37 31 17 11 19 15 18 20 20 22 22 20 10 13 7 10 11 10 6 7 5 5 5 3 4 5 6 8 8 6 8 11 3 4
24 26 28 30 32 33 34 35 36 36 36 36 36 36 35 20 16 18 13 9 8 9 16 15 7 7 8 10 14 10 9 5 7 5 6 3 4 13 15 13 4 5 5 10 9 5 5
25 27 27 29 30 30 32 34 35 36 37 36 35 33 33 26 13 16 11 5 5 7 15 26 29 24 20 14 8 13 11 7 7 7 5 6 13 8 6 7 5 3 4 12 12 4 5
26 28 29 30 31 31 32 34 36 38 38 38 37 34 31 29 11 16 10 10 11 14 6 9 13 12 10 14 9 9 11 7 6 7 11 12 3 9 6 5 6 7 10 8 12 9 4
27 28 29 31 31 32 34 36 38 39 39 39 39 37 32 25 10 21 10 19 18 16 7 7 6 5 8 8 6 12 10 6 3 10 11 11 1 9 6 9 13 7 9 5 3 6 7
30 31 31 31 32 34 36 38 40 42 42 40 40 38 34 25 18 15 18 20 17 6 9 3 5 7 7 8 2 7 10 6 7 7 7 11 12 9 9 13 15 11 4 4 2 3 6
33 33 33 33 33 35 37 40 41 42 43 42 40 40 35 28 21 15 18 17 6 10 12 3 4 3 3 6 4 6 6 5 2 0 3 12 2 9 12 4 8 10 6 8 7 5 3
37 32 31 32 34 36 38 41 42 43 44 43 41 42 41 31 16 16 15 8 9 7 5 5 8 5 4 7 6 10 8 6 10 3 8 4 8 3 6 7 2 5 9 7 8 3 11
31 29 35 34 38 41 43 45 46 47 48 47 44 41 38 25 19 12 7 8 8 8 12 4 3 2 9 10 9 6 3 7 11 5 4 8 13 16 10 12 14 11 15 10 12 8 9
28 35 41 41 45 50 52 49 50 51 51 51 47 44 33 23 9 7 3 4 15 13 6 4 1 6 7 5 8 6 13 11 14 21 17 11 13 3 5 4 6 8 9 4 1 4 4
32 35 43 44 49 56 59 56 55 53 51 51 47 41 19 6 5 8 5 11 10 8 2 3 13 14 13 8 7 9 10 8 8 19 2 7 11 4 4 4 5 6 7 6 4 7 12
36 42 43 43 48 58 50 55 58 62 56 50 40 19 8 10 15 6 7 14 11 15 11 13 11 10 16 11 14 10 11 7 8 6 8 9 8 6 7 13 18 4 5 4 4 8 9
32 35 37 41 43 48 48 49 50 55 58 46 21 7 16 27 6 1 5 9 7 8 7 11 6 13 13 14 11 12 17 15 18 19 15 13 9 11 23 6 5 9 18 19 12 13 9
31 36 39 42 45 48 48 46 43 42 44 45 28 17 13 4 4 5 10 10 9 6 9 6 8 13 6 11 8 16 12 11 21 18 17 13 7 8 16 4 5 9 9 10 4 3 38
31 34 37 39 41 43 43 44 43 38 33 28 14 8 10 9 6 3 7 11 9 13 11 12 10 6 5 9 13 10 7 8 17 14 18 23 13 16 33 24 7 10 14 15 24 17 16
36 38 39 41 45 47 46 46 43 37 32 19 6 8 7 7 7 5 6 10 28 25 11 9 5 9 12 9 7 15 12 9 11 15 13 14 36 19 38 40 31 37 38 24 31 33 22
38 39 42 44 46 47 49 50 47 43 35 6 12 15 22 18 31 20 15 14 29 26 20 31 28 28 34 41 32 42 33 32 29 6 12 9 28 17 38 26 25 38 50 43 48 51 42
36 39 41 42 44 46 47 46 46 47 43 19 23 18 10 13 16 17 8 16 24 23 19 29 40 36 23 28 58 61 60 55 45 26 15 12 10 11 32 32 32 33 55 53 47 38 39
39 42 41 43 43 41 46 44 41 38 36 29 24 19 9 7 6 7 22 38 32 33 25 39 40 25 26 58 83 59 53 48 38 43 40 24 25 9 21 21 33 19 6 4 32 19 5
41 43 42 44 43 41 39 39 37 33 29 28 18 13 7 9 10 27 15 10 40 38 13 33 27 35 58 38 13 14 9 12 32 45 41 39 35 18 20 32 34 7 10 8 3 4 14
44 43 41 43 45 42 38 37 34 32 26 28 18 16 14 16 7 12 17 23 9 9 11 15 50 33 38 7 9 14 12 6 9 10 5 28 44 32 28 33 40 12 12 33 10 5 25
45 44 44 45 37 42 43 35 34 27 26 22 24 20 22 21 20 18 3 9 21 15 7 18 28 35 21 5 6 8 17 12 18 13 14 9 11 32 39 29 10 16 36 35 5 8 25
60 59 51 45 43 41 40 38 28 24 26 28 31 23 27 24 45 50 31 33 31 27 15 25 23 6 9 7 5 7 10 10 12 30 14 7 11 10 13 11 7 57 14 12 1 27 27
59 60 63 58 56 50 41 40 33 30 27 29 40 38 29 37 42 69 79 60 60 55 52 13 16 20 12 5 6 6 11 7 3 11 9 7 8 8 9 7 11 31 25 29 20 24 27
Wind_Direction_500mb
40 39 39 39 39 39 36 36 34 33 31 28 23 14 345 275 251 248 238 225 224 240 226 278 319 313 276 259 257 289 276 259 286 284 228 220 221 190 205 198 238 189 244 227 249 234 238
35 34 34 34 35 37 35 36 34 33 29 23 17 10 349 314 286 257 236 234 251 254 252 277 295 293 274 263 271 278 256 245 250 237 228 211 215 191 164 199 181 244 265 265 271 240 235
26 26 26 26 28 30 31 32 32 32 29 21 13 3 346 317 283 269 257 256 256 264 276 279 292 287 270 257 253 305 270 230 209 201 186 172 181 190 173 204 249 277 320 308 218 220 233
13 14 16 16 18 20 21 24 26 25 25 23 16 7 353 325 287 273 266 263 260 266 265 310 293 293 262 240 249 257 308 240 219 225 199 178 165 171 199 159 19 42 56 1 216 154 247
360 2 3 4 5 8 9 11 14 15 17 17 15 9 4 355 348 291 279 273 270 261 263 275 285 269 264 240 243 249 271 255 234 228 224 211 187 173 137 96 8 7 243 236 312 200 142
350 350 352 353 354 357 358 359 2 4 6 8 10 7 2 354 341 328 302 280 272 263 262 266 251 274 237 231 228 258 259 262 214 212 185 192 137 78 45 97 230 228 279 250 239 237 209
348 346 347 347 349 351 353 354 356 356 356 358 0 1 1 358 352 346 333 306 283 265 234 224 197 245 247 246 263 253 223 231 201 189 197 33 75 222 222 202 172 150 198 251 253 266 269
348 347 349 348 352 352 354 355 356 356 355 353 353 352 354 355 341 357 350 307 356 301 299 245 242 248 252 255 265 227 218 213 179 208 123 17 237 220 118 142 144 152 247 262 283 279 196
348 349 349 350 352 352 354 355 356 357 356 355 352 350 347 349 325 351 1 11 342 330 267 259 224 234 227 222 242 218 199 191 181 188 195 187 245 118 135 157 183 218 198 229 238 332 266
342 344 346 348 349 350 351 352 353 354 354 353 351 351 348 344 332 338 337 344 337 333 43 251 228 218 201 209 268 205 204 210 223 211 169 232 253 173 180 230 155 269 206 171 253 36 255
338 340 340 342 345 345 345 346 348 348 348 350 348 347 347 345 327 328 328 333 332 340 350 187 188 179 197 203 283 217 209 197 221 200 132 254 169 185 197 218 163 223 105 138 96 155 9
333 338 337 338 341 341 341 342 343 343 342 344 345 343 342 337 323 313 326 333 338 40 259 257 159 203 181 198 223 164 180 201 164 155 243 245 262 189 211 129 166 134 96 61 61 100 316
332 340 340 341 341 340 339 338 338 339 338 338 341 340 337 329 316 312 324 322 28 153 338 242 235 180 230 219 238 179 179 187 193 149 249 281 222 224 174 126 51 125 70 318 326 1 230
341 346 341 345 341 339 337 335 334 336 334 332 334 334 330 323 310 303 308 49 205 243 243 334 92 108 220 169 240 190 181 262 226 135 127 207 307 182 178 201 184 179 170 168 246 227 262
330 329 330 338 337 340 338 332 336 336 335 332 332 333 325 312 295 305 198 129 211 211 242 206 14 215 265 245 199 172 214 218 218 175 186 179 265 155 189 151 151 179 184 196 166 117 352
322 325 328 328 328 331 336 338 335 337 340 337 338 335 312 287 304 325 93 232 240 217 198 165 205 182 223 220 187 186 210 205 237 193 63 220 291 194 141 114 42 166 164 79 11 248 245
318 318 317 319 322 325 337 334 333 335 339 342 340 330 317 306 312 261 205 231 273 267 222 191 226 248 223 220 205 210 235 257 212 144 175 157 167 241 130 196 185 129 217 216 178 172 213
323 323 327 327 326 326 330 329 328 331 336 338 355 334 295 294 313 160 222 215 297 281 236 264 222 221 208 209 226 233 224 220 182 157 177 210 172 234 218 237 195 193 203 179 205 234 238
334 332 331 331 330 329 329 328 330 335 339 343 333 287 290 279 227 251 282 277 255 258 229 221 259 212 182 215 239 205 224 244 205 169 179 186 217 309 309 23 14 229 210 216 314 10 243
352 352 348 348 346 343 342 340 336 330 324 325 324 307 286 232 249 219 289 267 269 287 266 248 253 210 178 239 230 266 230 265 210 225 217 167 189 204 254 250 148 208 221 211 220 239 245
9 6 3 2 1 358 360 1 357 343 340 318 244 253 297 296 319 309 316 294 293 288 235 285 271 225 235 271 260 237 237 276 239 238 211 181 256 231 256 260 258 259 258 231 229 235 242
6 4 3 359 356 355 356 358 359 1 1 26 326 351 340 309 315 285 286 266 291 306 307 274 269 308 301 269 260 276 281 271 264 184 197 203 247 222 255 260 241 253 253 246 246 249 250
1 1 358 354 353 354 352 351 355 358 5 25 346 325 328 305 316 309 316 2 343 5 300 348 342 323 310 311 330 315 293 266 259 232 215 186 231 198 259 270 261 252 246 246 247 243 234
357 354 352 350 346 345 346 346 351 1 6 6 1 344 331 290 322 308 308 321 324 333 293 288 298 296 307 314 317 301 281 262 250 252 232 232 230 241 262 264 247 250 17 272 224 248 19
353 351 348 346 342 345 340 340 345 348 356 352 357 355 310 290 311 300 302 352 315 316 300 300 291 325 325 310 293 287 262 253 243 238 238 232 241 252 251 242 257 264 14 11 139 7 355
350 346 344 341 340 340 339 337 334 336 341 336 344 337 305 305 259 284 330 303 317 316 312 281 320 320 318 292 283 292 289 298 267 289 327 246 237 238 244 259 264 44 343 337 301 215 3
347 343 339 338 335 331 332 325 332 333 336 324 316 317 304 281 283 352 303 317 307 308 268 306 340 324 325 287 289 283 279 320 299 324 342 332 291 246 238 245 111 339 308 307 160 1 10
357 352 345 333 332 328 326 326 322 327 330 326 321 307 296 275 287 291 272 275 275 271 275 313 328 3 317 350 314 325 303 39 328 315 318 319 315 321 326 308 240 352 346 36 299 54 48
346 338 335 333 336 332 323 317 317 285 304 314 298 307 296 276 267 283 290 278 276 274 266 269 256 310 285 339 349 351 310 273 319 300 7 302 337 321 9 25 18 23 43 44 64 67 52
Wind_Speed_850mb
33 36 38 39 42 46 48 48 40 30 23 19 13 8 4 3 4 5 7 7 7 9 11 6 11 11 7 9 10 8 5 4 4 3 7 11 10 7 4 4 2 4 3 8 9 11 12
28 32 36 37 39 42 44 48 47 39 29 24 19 13 9 7 6 8 8 10 11 12 16 18 17 14 10 7 5 5 5 4 3 3 6 10 7 5 4 4 5 3 7 12 10 11 12
25 29 32 35 37 38 40 42 44 44 39 31 25 19 13 11 10 12 11 14 13 13 15 16 14 12 15 16 8 5 5 6 4 4 4 6 6 7 6 2 2 3 8 9 10 7 7
23 26 29 32 34 35 36 38 39 40 42 40 32 24 22 15 13 13 16 17 18 17 12 9 12 13 11 13 12 9 7 7 7 6 3 4 3 6 3 4 7 5 7 7 3 8 2
20 25 28 31 34 35 35 35 36 37 38 39 39 32 27 15 8 10 15 18 20 23 22 23 19 12 11 10 12 10 8 7 8 7 6 5 5 4 4 7 7 10 4 5 15 13 3
21 24 28 31 34 35 35 36 36 36 36 37 37 37 31 17 11 19 15 18 20 20 22 22 20 10 13 7 10 11 10 6 7 5 5 5 3 4 5 6 8 8 6 8 11 3 4
24 26 28 30 32 33 34 35 36 36 36 36 36 36 35 20 16 18 13 9 8 9 16 15 7 7 8 10 14 10 9 5 7 5 6 3 4 13 15 13 4 5 5 10 9 5 5
25 27 27 29 30 30 32 34 35 36 37 36 35 33 33 26 13 16 11 5 5 7 15 26 29 24 20 14 8 13 11 7 7 7 5 6 13 8 6 7 5 3 4 12 12 4 5
26 28 29 30 31 31 32 34 36 38 38 38 37 34 31 29 11 16 10 10 11 14 6 9 13 12 10 14 9 9 11 7 6 7 11 12 3 9 6 5 6 7 10 8 12 9 4
27 28 29 31 31 32 34 36 38 39 39 39 39 37 32 25 10 21 10 19 18 16 7 7 6 5 8 8 6 12 10 6 3 10 11 11 1 9 6 9 13 7 9 5 3 6 7
30 31 31 31 32 34 36 38 40 42 42 40 40 38 34 25 18 15 18 20 17 6 9 3 5 7 7 8 2 7 10 6 7 7 7 11 12 9 9 13 15 11 4 4 2 3 6
33 33 33 33 33 35 37 40 41 42 43 42 40 40 35 28 21 15 18 17 6 10 12 3 4 3 3 6 4 6 6 5 2 0 3 12 2 9 12 4 8 10 6 8 7 5 3
37 32 31 32 34 36 38 41 42 43 44 43 41 42 41 31 16 16 15 8 9 7 5 5 8 5 4 7 6 10 8 6 10 3 8 4 8 3 6 7 2 5 9 7 8 3 11
31 29 35 34 38 41 43 45 46 47 48 47 44 41 38 25 19 12 7 8 8 8 12 4 3 2 9 10 9 6 3 7 11 5 4 8 13 16 10 12 14 11 15 10 12 8 9
28 35 41 41 45 50 52 49 50 51 51 51 47 44 33 23 9 7 3 4 15 13 6 4 1 6 7 5 8 6 13 11 14 21 17 11 13 3 5 4 6 8 9 4 1 4 4
32 35 43 44 49 56 59 56 55 53 51 51 47 41 19 6 5 8 5 11 10 8 2 3 13 14 13 8 7 9 10 8 8 19 2 7 11 4 4 4 5 6 7 6 4 7 12
36 42 43 43 48 58 50 55 58 62 56 50 40 19 8 10 15 6 7 14 11 15 11 13 11 10 16 11 14 10 11 7 8 6 8 9 8 6 7 13 18 4 5 4 4 8 9
32 35 37 41 43 48 48 49 50 55 58 46 21 7 16 27 6 1 5 9 7 8 7 11 6 13 13 14 11 12 17 15 18 19 15 13 9 11 23 6 5 9 18 19 12 13 9
31 36 39 42 45 48 48 46 43 42 44 45 28 17 13 4 4 5 10 10 9 6 9 6 8 13 6 11 8 16 12 11 21 18 17 13 7 8 16 4 5 9 9 10 4 3 38
31 34 37 39 41 43 43 44 43 38 33 28 14 8 10 9 6 3 7 11 9 13 11 12 10 6 5 9 13 10 7 8 17 14 18 23 13 16 33 24 7 10 14 15 24 17 16
36 38 39 41 45 47 46 46 43 37 32 19 6 8 7 7 7 5 6 10 28 25 11 9 5 9 12 9 7 15 12 9 11 15 13 14 36 19 38 40 31 37 38 24 31 33 22
38 39 42 44 46 47 49 50 47 43 35 6 12 15 22 18 31 20 15 14 29 26 20 31 28 28 34 41 32 42 33 32 29 6 12 9 28 17 38 26 25 38 50 43 48 51 42
36 39 41 42 44 46 47 46 46 47 43 19 23 18 10 13 16 17 8 16 24 23 19 29 40 36 23 28 58 61 60 55 45 26 15 12 10 11 32 32 32 33 55 53 47 38 39
39 42 41 43 43 41 46 44 41 38 36 29 24 19 9 7 6 7 22 38 32 33 25 39 40 25 26 58 83 59 53 48 38 43 40 24 25 9 21 21 33 19 6 4 32 19 5
41 43 42 44 43 41 39 39 37 33 29 28 18 13 7 9 10 27 15 10 40 38 13 33 27 35 58 38 13 14 9 12 32 45 41 39 35 18 20 32 34 7 10 8 3 4 14
44 43 41 43 45 42 38 37 34 32 26 28 18 16 14 16 7 12 17 23 9 9 11 15 50 33 38 7 9 14 12 6 9 10 5 28 44 32 28 33 40 12 12 33 10 5 25
45 44 44 45 37 42 43 35 34 27 26 22 24 20 22 21 20 18 3 9 21 15 7 18 28 35 21 5 6 8 17 12 18 13 14 9 11 32 39 29 10 16 36 35 5 8 25
60 59 51 45 43 41 40 38 28 24 26 28 31 23 27 24 45 50 31 33 31 27 15 25 23 6 9 7 5 7 10 10 12 30 14 7 11 10 13 11 7 57 14 12 1 27 27
59 60 63 58 56 50 41 40 33 30 27 29 40 38 29 37 42 69 79 60 60 55 52 13 16 20 12 5 6 6 11 7 3 11 9 7 8 8 9 7 11 31 25 29 20 24 27
Wind_Direction_850mb
40 39 39 39 39 39 36 36 34 33 31 28 23 14 345 275 251 248 238 225 224 240 226 278 319 313 276 259 257 289 276 259 286 284 228 220 221 190 205 198 238 189 244 227 249 234 238
35 34 34 34 35 37 35 36 34 33 29 23 17 10 349 314 286 257 236 234 251 254 252 277 295 293 274 263 271 278 256 245 250 237 228 211 215 191 164 199 181 244 265 265 271 240 235
26 26 26 26 28 30 31 32 32 32 29 21 13 3 346 317 283 269 257 256 256 264 276 279 292 287 270 257 253 305 270 230 209 201 186 172 181 190 173 204 249 277 320 308 218 220 233
13 14 16 16 18 20 21 24 26 25 25 23 16 7 353 325 287 273 266 263 260 266 265 310 293 293 262 240 249 257 308 240 219 225 199 178 165 171 199 159 19 42 56 1 216 154 247
360 2 3 4 5 8 9 11 14 15 17 17 15 9 4 355 348 291 279 273 270 261 263 275 285 269 264 240 243 249 271 255 234 228 224 211 187 173 137 96 8 7 243 236 312 200 142
350 350 352 353 354 357 358 359 2 4 6 8 10 7 2 354 341 328 302 280 272 263 262 266 251 274 237 231 228 258 259 262 214 212 185 192 137 78 45 97 230 228 279 250 239 237 209
348 346 347 347 349 351 353 354 356 356 356 358 0 1 1 358 352 346 333 306 283 265 234 224 197 245 247 246 263 253 223 231 201 189 197 33 75 222 222 202 172 150 198 251 253 266 269
348 347 349 348 352 352 354 355 356 356 355 353 353 352 354 355 341 357 350 307 356 301 299 245 242 248 252 255 265 227 218 213 179 208 123 17 237 220 118 142 144 152 247 262 283 279 196
348 349 349 350 352 352 354 355 356 357 356 355 352 350 347 349 325 351 1 11 342 330 267 259 224 234 227 222 242 218 199 191 181 188 195 187 245 118 135 157 183 218 198 229 238 332 266
342 344 346 348 349 350 351 352 353 354 354 353 351 351 348 344 332 338 337 344 337 333 43 251 228 218 201 209 268 205 204 210 223 211 169 232 253 173 180 230 155 269 206 171 253 36 255
338 340 340 342 345 345 345 346 348 348 348 350 348 347 347 345 327 328 328 333 332 340 350 187 188 179 197 203 283 217 209 197 221 200 132 254 169 185 197 218 163 223 105 138 96 155 9
333 338 337 338 341 341 341 342 343 343 342 344 345 343 342 337 323 313 326 333 338 40 259 257 159 203 181 198 223 164 180 201 164 155 243 245 262 189 211 129 166 134 96 61 61 100 316
332 340 340 341 341 340 339 338 338 339 338 338 341 340 337 329 316 312 324 322 28 153 338 242 235 180 230 219 238 179 179 187 193 149 249 281 222 224 174 126 51 125 70 318 326 1 230
341 346 341 345 341 339 337 335 334 336 334 332 334 334 330 323 310 303 308 49 205 243 243 334 92 108 220 169 240 190 181 262 226 135 127 207 307 182 178 201 184 179 170 168 246 227 262
330 329 330 338 337 340 338 332 336 336 335 332 332 333 325 312 295 305 198 129 211 211 242 206 14 215 265 245 199 172 214 218 218 175 186 179 265 155 189 151 151 179 184 196 166 117 352
322 325 328 328 328 331 336 338 335 337 340 337 338 335 312 287 304 325 93 232 240 217 198 165 205 182 223 220 187 186 210 205 237 193 63 220 291 194 141 114 42 166 164 79 11 248 245
318 318 317 319 322 325 337 334 333 335 339 342 340 330 317 306 312 261 205 231 273 267 222 191 226 248 223 220 205 210 235 257 212 144 175 157 167 241 130 196 185 129 217 216 178 172 213
323 323 327 327 326 326 330 329 328 331 336 338 355 334 295 294 313 160 222 215 297 281 236 264 222 221 208 209 226 233 224 220 182 157 177 210 172 234 218 237 195 193 203 179 205 234 238
334 332 331 331 330 329 329 328 330 335 339 343 333 287 290 279 227 251 282 277 255 258 229 221 259 212 182 215 239 205 224 244 205 169 179 186 217 309 309 23 14 229 210 216 314 10 243
352 352 348 348 346 343 342 340 336 330 324 325 324 307 286 232 249 219 289 267 269 287 266 248 253 210 178 239 230 266 230 265 210 225 217 167 189 204 254 250 148 208 221 211 220 239 245
9 6 3 2 1 358 360 1 357 343 340 318 244 253 297 296 319 309 316 294 293 288 235 285 271 225 235 271 260 237 237 276 239 238 211 181 256 231 256 260 258 259 258 231 229 235 242
6 4 3 359 356 355 356 358 359 1 1 26 326 351 340 309 315 285 286 266 291 306 307 274 269 308 301 269 260 276 281 271 264 184 197 203 247 222 255 260 241 253 253 246 246 249 250
1 1 358 354 353 354 352 351 355 358 5 25 346 325 328 305 316 309 316 2 343 5 300 348 342 323 310 311 330 315 293 266 259 232 215 186 231 198 259 270 261 252 246 246 247 243 234
357 354 352 350 346 345 346 346 351 1 6 6 1 344 331 290 322 308 308 321 324 333 293 288 298 296 307 314 317 301 281 262 250 252 232 232 230 241 262 264 247 250 17 272 224 248 19
353 351 348 346 342 345 340 340 345 348 356 352 357 355 310 290 311 300 302 352 315 316 300 300 291 325 325 310 293 287 262 253 243 238 238 232 241 252 251 242 257 264 14 11 139 7 355
350 346 344 341 340 340 339 337 334 336 341 336 344 337 305 305 259 284 330 303 317 316 312 281 320 320 318 292 283 292 289 298 267 289 327 246 237 238 244 259 264 44 343 337 301 215 3
347 343 339 338 335 331 332 325 332 333 336 324 316 317 304 281 283 352 303 317 307 308 268 306 340 324 325 287 289 283 279 320 299 324 342 332 291 246 238 245 111 339 308 307 160 1 10
357 352 345 333 332 328 326 326 322 327 330 326 321 307 296 275 287 291 272 275 275 271 275 313 328 3 317 350 314 325 303 39 328 315 318 319 315 321 326 308 240 352 346 36 299 54 48
346 338 335 333 336 332 323 317 317 285 304 314 298 307 296 276 267 283 290 278 276 274 266 269 256 310 285 339 349 351 310 273 319 300 7 302 337 321 9 25 18 23 43 44 64 67 52